Location: Little Chesterford
(52.0500°N, 0.1833°E)
Time: 13:00:09
(UTC+00:00)

USA 215 - Pass Details

Date: 26 September 2023
Orbit: 1098 x 1109 km, 123.0° (Epoch: 06 December)

Event Time Altitude Azimuth Distance (km) Brightness Sun altitude
Exits shadow 19:56:01 23° 76° (ENE) 2,144 4.3 -19.8°
Maximum altitude 19:59:52 47° 138° (SE) 1,432 3.4 -20.4°
Drops below altitude 10° 20:06:08 10° 211° (SSW) 2,964 5.6 -21.2°
Sets 20:08:44 0° 217° (SW) 3,920 6.3 -21.6°
